Dewpoint
-3 -2 -1 -1 0 -0 0 1 2 2 3 3 3 4 4 4 4 3 2 2 2 2 3 4 4 4 5 6 5 6 7 7 8 8 9 9 10 10 11 11 11 10 10 12 13 13 13 13 15 15 15 15 17 18 19 21 21 23 23 24 26 28 31
-2 -1 -1 -1 -0 -0 0 1 2 3 3 4 4 4 4 5 5 4 4 4 3 3 4 4 3 3 4 4 4 4 5 5 5 5 6 7 9 9 9 11 9 8 8 8 10 11 13 13 15 13 14 15 15 16 20 19 19 20 22 23 25 29 29
-1 -1 -1 -1 -0 -0 1 1 3 3 4 5 5 5 4 5 6 6 5 5 4 4 5 4 4 3 3 3 3 4 4 5 5 6 6 7 8 8 9 9 9 8 7 7 8 10 9 9 10 11 12 13 15 17 17 17 18 19 21 24 26 28 28
-1 -1 -1 -0 0 1 1 1 3 3 5 5 5 5 5 7 7 7 7 6 6 6 5 4 4 4 4 4 3 3 4 5 5 5 5 5 6 7 8 10 10 9 9 8 7 7 7 7 8 8 11 12 13 13 16 16 17 20 22 23 24 25 26
-1 -1 -0 -0 0 0 1 1 2 3 4 4 4 5 6 7 8 8 8 8 7 9 7 6 5 4 4 4 3 3 3 4 4 4 5 5 6 6 6 6 7 9 11 11 10 9 10 10 10 11 12 13 13 13 15 16 17 18 20 22 24 25 26
-1 -0 -1 -0 -0 0 1 2 2 3 4 4 4 4 5 7 8 8 8 8 8 8 8 8 7 7 6 5 3 3 3 4 3 4 4 5 6 7 7 7 6 6 7 8 9 11 11 12 13 13 13 13 14 13 14 15 17 20 21 22 21 22 23
-1 -0 -0 -0 0 1 1 2 2 3 4 4 4 6 6 6 7 7 8 8 8 9 9 9 9 8 7 6 5 4 4 3 3 4 4 5 6 7 8 8 7 7 7 7 7 7 8 9 11 12 11 13 14 15 15 14 15 16 18 20 21 20 22
-1 -1 -1 -0 -0 1 2 2 2 3 4 5 6 7 7 7 8 8 8 9 9 10 10 10 9 9 8 8 7 6 5 5 4 4 4 5 6 6 6 6 7 7 8 8 7 6 6 7 6 7 9 11 14 15 16 16 16 15 16 17 20 21 20
-1 -1 -1 -1 0 1 2 2 2 3 3 4 5 6 6 7 7 8 9 9 10 11 11 10 10 9 9 10 11 11 11 10 10 4 3 4 5 5 5 5 6 7 7 7 7 6 6 6 5 5 5 6 8 12 14 16 17 17 18 19 21 23 24
-2 -1 -2 -1 -1 0 1 1 2 6 11 13 8 8 8 8 9 9 10 10 11 11 11 12 11 9 12 12 13 13 14 16 16 15 9 5 4 4 5 5 5 6 7 7 6 6 5 5 4 5 5 5 5 6 11 14 16 16 17 18 19 21 23
-2 -2 -2 -1 -1 -0 -0 1 2 11 14 16 18 15 13 13 12 11 11 11 11 12 12 12 12 11 12 13 14 13 15 17 17 18 18 17 14 10 6 3 3 5 6 8 9 8 7 5 5 5 6 5 6 7 10 14 17 17 17 16 15 15 17
-3 -3 -2 -2 -1 -1 -1 -0 8 14 16 17 19 19 15 16 16 16 15 15 14 14 14 14 14 14 12 11 11 11 12 15 17 18 19 19 19 18 17 13 7 4 4 6 7 10 12 9 7 7 8 8 8 10 15 19 20 20 19 18 18 17 16
-3 -3 -2 -2 -2 -2 -1 -0 9 14 16 18 19 20 20 18 18 18 17 18 18 17 17 16 15 14 14 13 16 15 13 12 13 16 18 19 19 19 20 20 19 15 9 7 6 6 8 11 15 15 12 11 11 15 17 18 19 20 21 22 20 19 19
-4 -3 -3 -3 -3 -2 -1 -0 8 14 17 18 20 21 21 19 20 20 20 20 20 20 19 18 16 15 15 15 15 15 14 13 13 13 13 15 16 17 18 19 20 21 20 15 9 8 7 9 11 12 16 19 18 17 17 17 18 19 20 21 22 22 22
-5 -4 -3 -2 -1 -1 -1 -0 12 15 17 19 20 21 21 20 20 20 20 21 21 22 21 20 19 17 16 16 16 15 15 15 14 14 13 13 13 14 15 16 17 18 18 18 17 13 11 11 12 12 14 15 16 16 17 18 18 19 21 23 23 22 24
-3 -3 -2 -2 -2 -2 -1 -1 12 15 17 19 20 21 20 20 20 21 22 23 24 24 23 22 21 19 18 17 17 18 21 20 16 15 14 13 13 13 14 14 18 20 20 19 18 17 17 15 14 16 14 14 14 15 18 19 21 22 21 20 18 19 20
-4 -3 -3 -3 -2 -2 -1 -0 7 14 17 19 21 21 19 20 21 21 21 21 22 23 24 23 22 21 19 19 18 19 22 23 22 17 15 14 13 13 13 13 14 19 22 23 23 22 22 22 22 22 21 20 20 19 19 18 18 18 19 18 17 18 20
-5 -4 -3 -2 -2 -1 -0 1 7 14 17 19 21 21 20 20 20 19 20 20 20 22 24 24 25 24 21 20 20 22 24 24 23 20 17 15 14 13 13 13 14 13 15 21 23 23 23 22 22 21 21 22 23 23 22 20 18 19 19 19 20 19 20
-4 -3 -3 -2 -1 4 3 4 8 14 17 19 20 20 19 20 19 18 18 20 21 20 21 22 23 23 23 23 22 25 25 26 24 22 21 18 15 14 13 14 15 14 12 13 15 16 18 19 21 20 19 19 20 21 22 22 22 21 20 19 20 21 21
-4 -4 -3 -2 -1 1 2 3 4 7 16 19 20 19 17 19 18 18 18 19 20 18 15 14 17 20 22 22 23 24 25 25 25 24 23 21 19 16 15 16 16 15 14 12 13 13 14 15 16 18 19 19 18 19 20 20 21 21 20 21 20 21 21
-5 -5 -3 -2 -0 1 3 4 6 8 17 19 18 17 17 16 17 18 18 18 19 19 17 15 17 17 19 21 22 23 24 25 25 26 25 23 21 20 19 20 16 15 17 14 12 12 12 11 12 14 15 16 17 16 17 18 19 20 20 21 22 22 22
-6 -5 -4 -2 0 2 3 5 8 9 14 18 16 16 17 15 16 17 18 18 18 18 18 18 18 17 18 20 22 23 23 24 25 25 24 24 26 26 25 22 18 15 15 15 13 12 12 12 12 12 12 13 14 15 16 16 17 19 20 22 23 24 23
-8 -6 -4 -2 0 3 4 5 8 13 14 15 15 15 16 16 16 18 17 18 17 17 17 19 18 18 20 21 22 23 23 24 25 25 25 26 26 27 27 25 21 17 15 15 14 13 13 13 13 13 13 14 14 14 15 16 18 20 21 22 23 25 26
-6 -4 -2 -1 1 3 4 6 8 13 14 12 13 14 15 15 16 17 17 17 17 17 17 18 18 19 21 22 22 22 23 24 24 24 25 25 24 25 26 26 23 19 17 16 15 15 14 14 15 17 17 18 18 17 18 19 20 21 22 22 22 24 25
-5 -4 -2 -0 1 2 3 6 7 5 10 12 12 13 14 15 16 16 16 15 16 17 16 17 19 20 21 21 22 22 21 22 22 22 22 21 21 20 22 25 23 20 19 18 16 16 16 16 18 18 19 20 20 20 21 21 21 22 22 23 23 24 25
-5 -3 -2 -1 0 2 4 6 6 5 3 10 11 12 13 15 15 15 15 16 15 16 17 18 19 20 20 20 19 17 16 18 19 20 20 19 18 15 15 18 23 22 20 19 18 18 18 19 19 20 20 20 20 20 21 22 21 21 21 22 23 23 24
-4 -3 -1 -0 0 2 5 7 3 1 -1 0 4 8 11 13 14 16 15 14 14 15 15 16 19 18 17 17 17 17 17 17 17 16 16 16 15 15 14 16 17 20 22 20 19 19 19 20 20 20 20 20 21 21 21 22 22 21 21 22 23 23 22
-5 -3 -1 0 3 4 7 6 3 -0 -1 3 7 10 12 14 15 13 13 13 13 15 16 15 16 12 9 8 7 8 8 9 11 13 13 14 14 14 15 15 17 17 15 17 20 21 21 21 20 20 20 20 20 20 21 22 22 22 21 22 22 21 21
-4 -1 0 3 4 7 5 5 5 4 13 11 13 12 12 13 13 12 13 15 19 18 13 10 7 6 3 2 4 4 3 5 7 9 11 11 12 12 13 12 13 12 12 13 15 16 17 20 21 21 21 20 20 21 21 22 22 22 22 22 22 21 21
1 1 3 7 8 7 6 5 7 10 12 13 13 14 14 14 14 15 14 17 17 14 7 4 1 1 2 2 1 3 5 6 7 8 8 8 11 10 11 11 11 11 11 12 13 13 14 15 17 18 19 20 22 23 22 22 22 21 22 22 22 20 21
15 14 12 9 6 6 8 8 9 10 12 12 13 13 13 13 14 15 15 15 11 5 2 2 1 1 2 2 1 3 4 5 5 6 6 6 7 7 8 9 10 11 11 11 11 12 12 13 14 15 16 17 19 20 21 24 24 23 22 22 22 21 21
10 9 9 9 8 7 6 8 9 10 11 12 12 12 12 12 14 14 13 13 13 5 3 1 0 -0 0 1 1 2 3 3 3 3 3 4 4 5 6 7 7 9 9 9 8 10 11 11 11 12 13 14 15 16 17 18 21 23 23 23 23 22 22
8 8 8 8 8 8 9 9 9 10 10 10 11 11 11 11 12 13 12 10 2 1 1 1 0 -0 -0 0 -2 -2 -1 0 -1 -0 -0 -0 0 1 1 3 5 8 8 7 8 8 8 9 10 11 11 12 13 13 14 15 17 20 23 22 22 21 21
6 6 6 5 6 7 8 8 9 9 9 9 10 10 10 9 8 11 11 5 -4 -4 -4 -4 -5 -4 -3 -2 -2 -3 -3 -4 -4 -2 -4 -4 -4 -3 -2 -1 2 5 5 5 5 5 5 6 7 9 9 10 11 12 13 13 15 17 20 21 21 21 21
-9 -1 2 1 2 6 6 7 7 7 8 8 8 8 8 7 -8 -8 -7 -7 -8 -7 -9 -8 -8 -8 -6 -5 -5 -5 -5 -6 -5 -5 -6 -7 -6 -6 -5 -3 0 4 4 4 4 4 4 5 7 6 7 9 9 10 11 12 13 16 18 20 21 21 20
-15 -15 -3 1 2 3 4 6 6 6 7 8 7 6 5 -12 -14 -12 -11 -9 -10 -11 -10 -9 -9 -9 -9 -8 -8 -7 -7 -6 -7 -7 -7 -7 -8 -8 -8 -6 -2 2 3 2 3 2 4 5 3 3 6 7 8 9 10 11 12 12 14 17 20 21 20